Wind_Speed
56 50 41 39 36 37 41 44 38 39 35 36 36 32 26 22 21 21 22 17 16 15 13 18 20 18 17 18 20 21 18 18 17 13 26 20 32 40 62 63 78 71 70 73 59 58 58 70 75 57 48 53 51 54
48 42 39 36 39 42 42 43 41 41 43 39 37 33 31 28 24 20 19 15 15 11 8 14 16 16 18 20 16 17 20 23 13 21 27 20 20 32 40 61 57 58 73 77 57 40 62 64 72 61 60 52 53 50
42 37 37 39 42 44 48 46 42 38 35 35 37 37 35 31 26 21 17 16 14 11 11 12 11 10 10 14 14 16 23 17 19 20 30 28 21 17 30 48 55 37 70 72 51 41 42 65 55 53 59 59 60 55
38 38 38 41 45 46 44 40 37 36 35 33 31 28 31 32 29 27 26 23 19 13 12 8 5 8 7 9 9 14 22 12 18 21 32 29 14 13 15 38 48 57 34 69 53 42 46 65 47 41 49 52 57 65
37 33 36 39 41 42 37 34 34 33 33 31 30 28 26 23 27 29 29 28 25 20 14 12 9 8 6 6 6 14 18 13 14 22 32 22 1 10 17 19 35 59 42 48 66 42 47 45 51 47 51 52 54 57
38 29 32 35 38 39 34 37 32 36 37 36 35 33 31 31 26 19 20 21 21 21 20 14 16 14 9 7 6 5 18 16 11 16 13 8 11 15 19 18 19 45 49 30 62 57 35 35 50 53 55 53 52 51
31 34 29 28 32 33 31 30 34 39 40 37 38 31 28 28 28 29 22 17 18 19 21 21 18 8 3 1 3 5 2 1 9 14 15 11 6 6 19 12 17 35 43 37 54 46 52 51 46 51 48 52 51 51
28 29 32 28 28 29 28 29 33 39 53 47 34 34 33 36 32 28 25 24 23 21 22 22 22 20 14 7 3 6 7 19 19 14 10 5 9 6 6 13 22 36 36 46 43 42 51 43 43 45 48 53 57 57
27 28 30 32 27 27 26 26 28 35 42 45 34 33 32 35 35 36 28 27 23 25 25 20 18 15 16 17 17 21 22 23 21 14 6 9 5 6 7 18 18 32 37 47 52 49 50 52 51 50 51 52 54 54
24 24 28 32 28 24 22 22 25 30 34 40 31 28 28 39 36 38 33 37 33 28 26 26 18 20 18 22 18 24 26 25 18 19 16 8 7 5 6 14 22 25 18 32 47 48 47 52 52 54 57 54 55 32
24 26 26 28 29 26 24 19 22 26 29 29 32 30 23 33 49 45 41 37 36 30 24 18 18 22 19 19 18 26 23 21 20 15 11 6 3 6 9 15 22 14 22 29 41 44 35 36 38 41 38 38 31 30
24 26 27 27 27 24 21 17 21 25 24 28 30 20 28 44 49 43 39 30 33 18 22 23 24 23 25 23 24 23 21 22 21 12 13 18 21 10 7 12 5 14 22 24 33 41 33 28 16 12 18 18 17 25
24 27 26 24 25 24 24 18 15 19 21 27 24 16 31 41 43 34 30 26 26 25 23 23 22 21 20 22 22 27 35 33 28 32 36 32 28 24 20 16 18 18 21 23 18 25 23 22 17 14 11 13 14 16
23 24 23 22 23 23 22 20 17 16 18 22 22 26 42 44 35 28 31 23 21 21 17 17 16 18 24 33 36 38 37 40 41 35 30 28 31 25 24 30 28 30 27 25 17 16 18 14 13 10 12 14 18 17
24 22 20 19 23 23 21 16 16 17 16 16 23 31 35 35 28 33 32 24 22 21 15 16 21 28 38 39 37 36 39 36 34 36 27 20 16 11 10 17 16 18 18 14 12 9 10 10 9 6 6 9 12 12
23 21 20 18 17 20 18 21 25 20 12 12 22 24 23 23 23 25 31 34 30 28 29 35 37 34 35 34 33 31 28 26 23 21 21 22 25 19 18 17 18 9 10 11 13 12 10 7 5 6 11 12 12 12
22 22 22 21 21 21 24 22 16 12 17 19 18 18 19 20 23 21 25 33 30 26 23 26 30 32 30 29 30 28 27 23 20 19 14 15 16 17 17 17 15 13 12 10 9 7 7 6 6 4 2 3 5 5
23 22 22 23 22 22 26 20 18 20 25 24 20 18 18 17 18 18 23 20 19 20 19 20 20 21 27 29 26 21 20 20 20 20 17 12 12 12 13 10 11 10 8 8 6 1 4 4 5 6 7 9 10 10
22 21 21 23 23 27 23 23 24 28 31 31 31 26 22 17 17 20 15 12 15 17 20 11 8 16 19 17 13 12 10 9 7 5 3 3 6 6 7 7 7 7 7 9 11 10 9 7 6 8 9 14 16 14
15 17 20 22 22 22 21 23 21 23 24 25 26 25 25 25 25 22 22 21 22 19 15 12 12 14 12 9 7 6 6 6 7 8 10 10 11 11 12 12 11 9 8 8 10 14 17 17 17 18 18 17 18 18
18 16 15 20 18 18 19 17 18 20 21 20 21 21 20 22 21 20 20 23 20 15 13 14 15 15 14 12 10 8 7 8 10 12 14 16 17 18 16 15 15 17 14 10 11 15 19 20 20 20 20 21 21 21
15 15 18 18 16 18 18 16 14 11 11 13 16 18 18 18 17 15 15 19 19 20 19 17 16 16 16 16 16 17 16 14 12 12 12 14 15 17 17 16 17 19 22 22 21 20 19 20 21 21 23 24 25 26
12 13 13 15 18 19 17 16 14 14 19 13 17 11 11 15 12 12 13 17 20 21 18 16 15 15 16 18 18 19 18 21 23 23 20 19 20 20 22 23 23 23 25 26 27 27 27 26 28 31 31 31 32 31
14 14 11 12 18 16 15 15 16 15 15 17 17 16 11 15 16 19 19 20 21 22 23 23 23 23 19 19 21 24 24 23 23 26 28 29 27 26 28 30 32 33 31 32 33 33 34 35 35 36 38 41 43 44
15 14 11 13 12 14 15 18 21 20 19 18 19 18 19 18 19 20 22 23 25 27 28 29 29 28 28 27 26 28 30 30 29 29 31 32 33 34 34 35 37 38 39 40 41 41 42 42 43 44 45 45 46 47
8 9 10 12 14 16 16 18 20 20 21 21 21 22 23 22 22 23 25 27 30 32 33 32 29 28 24 21 22 23 25 25 23 23 24 27 29 31 31 32 34 35 36 36 36 36 37 38 38 37 38 39 41 43
6 10 9 10 11 15 19 21 23 23 22 22 25 26 28 28 28 30 32 32 33 35 34 26 23 23 24 23 20 21 22 20 18 17 17 19 19 19 19 20 21 21 21 23 24 24 26 27 27 28 29 30 31 32
9 9 10 11 12 13 15 18 18 19 20 19 23 27 28 30 30 32 33 32 33 34 33 27 25 24 25 26 25 25 24 23 22 20 17 16 16 17 17 17 17 18 17 18 20 22 24 25 27 28 29 30 31 32
7 7 10 12 14 16 17 19 21 23 24 23 24 29 29 30 32 32 33 34 33 34 34 29 27 26 27 26 26 27 26 23 24 24 23 21 21 22 22 22 22 24 26 25 24 26 26 27 27 28 29 30 30 30
7 9 12 14 16 19 20 20 20 22 23 23 24 26 28 29 31 33 34 36 36 35 34 31 27 26 28 28 26 25 26 24 23 23 23 23 23 24 25 25 25 26 27 27 27 27 27 28 30 31 31 30 29 28
12 13 13 15 18 18 19 19 18 18 21 22 25 28 30 32 33 33 33 36 35 34 34 34 31 28 28 29 29 27 26 25 26 25 24 24 24 24 25 25 25 25 25 25 26 26 27 28 29 29 28 27 26 25
14 15 18 17 16 19 21 21 20 21 22 25 25 29 32 34 33 33 33 35 36 36 35 35 34 31 31 29 28 28 29 29 28 28 27 27 26 25 25 25 25 25 25 25 25 25 26 26 26 25 25 24 23 22
17 17 18 18 19 20 22 23 22 22 23 27 27 29 33 35 36 36 35 35 35 36 36 36 35 34 34 32 30 29 29 29 30 29 29 28 28 28 27 26 26 26 26 26 27 26 26 25 24 24 24 23 23 21
Wind_Direction
348 351 356 1 6 7 3 4 1 3 2 359 359 357 344 339 336 330 323 316 306 289 281 270 263 259 250 253 245 243 249 217 225 208 221 226 221 226 221 220 225 220 220 209 198 191 203 216 222 221 229 223 223 224
356 1 3 10 12 8 6 4 1 358 -0 359 3 2 4 0 348 341 342 339 330 325 284 275 273 267 253 254 245 242 220 229 182 184 211 219 219 229 228 219 228 224 222 209 202 184 203 208 218 224 215 219 224 222
2 5 9 15 15 10 4 3 4 7 4 3 6 9 9 13 17 15 4 358 352 347 316 307 301 278 254 245 249 232 218 227 183 178 199 220 238 205 227 214 220 230 217 210 202 190 198 207 215 222 222 218 221 222
2 7 16 17 7 4 2 4 6 6 6 4 7 6 6 7 14 23 26 26 25 20 9 10 321 288 256 230 213 208 219 197 185 199 202 226 227 127 201 214 211 219 215 211 197 191 190 199 207 208 222 216 224 228
1 8 17 9 5 8 16 16 12 13 12 13 17 12 3 15 19 17 20 18 17 20 18 24 47 65 87 106 104 190 200 153 163 196 204 212 40 96 154 192 213 213 216 203 199 184 183 195 203 205 218 221 222 224
2 9 16 10 4 12 12 24 21 19 15 11 11 18 24 24 17 23 19 30 32 30 38 53 52 64 90 119 149 124 138 116 149 178 178 124 75 100 152 151 176 207 213 208 196 210 198 185 196 204 216 221 224 230
4 6 9 12 7 11 16 18 12 12 15 13 16 19 22 19 25 32 33 35 37 33 39 72 81 99 83 167 186 147 142 112 152 120 97 92 127 99 141 137 164 182 190 190 192 194 197 210 196 199 214 217 222 222
359 4 4 7 5 1 10 11 2 4 6 9 21 25 35 31 37 48 53 49 53 53 65 81 88 85 73 59 65 350 58 119 137 119 98 138 210 134 132 162 164 175 189 178 188 190 200 208 211 213 216 218 222 226
351 355 358 5 354 345 351 2 357 358 2 7 18 30 29 31 42 38 38 41 50 55 60 63 64 77 89 90 64 70 100 102 112 128 168 115 119 147 193 172 153 187 181 193 193 202 214 222 221 216 224 231 236 243
353 355 356 351 350 336 341 352 359 358 1 13 23 32 42 42 30 24 29 35 38 30 23 36 50 61 72 65 66 68 85 100 104 114 106 109 189 206 274 210 154 158 212 199 194 205 206 216 224 232 240 244 239 248
358 358 357 353 355 350 346 350 359 3 1 10 18 28 42 29 26 38 40 46 46 52 54 59 80 77 65 59 63 77 90 103 108 100 99 143 191 229 266 245 223 225 158 192 201 207 214 218 226 234 239 239 252 236
1 359 353 350 351 360 6 350 355 359 2 18 19 15 27 27 34 40 26 51 49 48 29 42 56 61 66 63 69 80 97 105 106 129 116 109 105 107 241 238 35 130 157 182 201 205 213 221 191 177 213 201 213 195
355 358 355 357 357 6 12 5 9 4 2 16 4 26 28 31 27 36 45 49 62 52 66 82 78 82 89 91 94 103 101 89 106 105 85 85 98 94 107 130 132 128 138 156 140 166 175 177 174 180 197 194 188 194
357 358 360 0 1 12 15 10 8 7 20 24 26 46 41 33 36 43 49 55 54 66 69 69 90 91 89 98 104 108 93 90 95 89 86 88 96 98 103 111 115 121 120 120 114 115 129 134 138 163 198 197 209 214
360 7 9 10 7 10 12 13 21 30 26 22 37 45 41 35 33 37 45 62 54 52 66 72 89 98 105 102 103 94 81 78 82 90 90 81 86 88 92 122 136 139 135 134 129 135 146 152 153 160 176 195 209 212
13 18 23 29 23 20 19 39 30 22 34 49 54 52 48 43 49 63 68 61 61 62 91 101 95 94 90 86 88 85 83 77 83 82 80 71 66 78 90 89 89 113 124 139 157 152 143 145 145 169 176 186 205 220
28 31 33 35 33 31 33 34 30 31 62 60 56 50 55 61 62 60 57 64 66 68 96 99 92 90 86 75 76 72 78 85 89 87 89 60 56 62 65 68 67 63 74 90 93 105 122 140 160 178 229 253 253 237
31 35 38 37 35 38 39 37 46 53 55 60 64 58 54 62 63 53 52 56 57 58 53 49 70 87 86 77 76 90 96 89 91 91 68 48 52 56 54 49 57 47 45 49 69 117 266 261 265 260 253 254 249 252
38 43 44 45 46 48 44 53 55 62 65 66 64 59 59 61 56 49 39 36 43 37 22 8 34 67 74 76 67 78 88 86 59 57 79 346 2 11 20 359 349 359 356 346 339 327 306 296 287 279 276 276 273 268
38 46 45 39 39 39 33 40 42 50 57 61 66 59 58 61 55 48 43 41 31 7 355 4 15 26 33 34 28 12 352 348 348 348 348 341 339 352 353 348 342 347 337 322 305 297 293 293 292 286 280 277 282 286
40 39 43 43 30 22 21 30 36 42 44 45 41 44 43 47 47 53 44 38 25 28 34 37 31 22 15 14 16 4 349 337 325 317 315 316 317 318 322 318 312 306 300 286 276 282 290 290 286 282 281 281 280 278
38 39 42 40 29 18 21 19 19 23 36 38 35 32 32 30 29 27 34 18 11 10 12 9 6 2 356 352 345 337 330 324 317 310 306 307 309 308 309 309 308 307 306 301 294 287 285 286 284 278 275 274 272 274
11 18 25 16 1 8 23 26 21 11 21 38 22 2 19 9 7 6 355 346 349 353 357 358 353 345 338 330 320 311 311 311 311 306 300 300 300 300 298 296 291 287 283 282 284 286 286 283 281 282 281 280 280 278
3 8 12 6 8 16 11 24 29 21 11 11 7 12 354 352 338 346 345 343 343 340 339 338 333 327 327 322 314 307 304 300 298 298 298 298 298 296 294 292 288 286 286 285 284 282 282 282 281 279 278 278 276 274
348 358 10 3 11 12 24 24 24 22 19 11 4 4 359 350 346 344 345 345 342 341 337 329 323 317 312 310 304 297 293 292 291 289 287 287 286 285 284 284 286 288 289 289 289 288 287 285 283 282 280 280 280 279
345 6 18 8 16 22 29 31 28 26 24 18 14 10 5 360 355 351 348 346 344 339 333 330 325 324 327 326 318 311 306 308 307 299 292 287 286 286 286 286 286 287 288 287 287 287 286 286 287 288 289 288 287 286
119 16 30 30 29 29 29 27 25 18 15 12 9 6 3 360 356 352 350 350 346 344 344 342 345 346 345 346 340 332 330 329 322 316 310 306 305 302 297 294 294 295 295 294 294 295 296 296 296 295 295 296 295 295
70 56 44 39 35 30 24 23 16 8 3 359 2 4 0 356 353 352 350 350 348 349 350 341 342 347 352 351 346 338 340 338 335 333 324 318 317 313 312 314 314 313 312 310 308 306 303 305 304 305 305 303 302 301
29 36 34 28 23 22 16 12 9 5 2 359 355 355 355 353 351 350 349 351 353 353 356 346 338 340 344 350 348 337 333 334 332 331 329 328 325 321 319 319 319 318 317 315 313 311 312 312 311 310 309 307 306 306
30 11 4 0 3 1 356 355 357 357 356 355 352 354 355 351 350 349 350 352 356 356 355 353 342 336 337 343 347 343 337 334 330 328 327 324 321 317 315 313 311 311 311 312 314 316 319 320 320 318 316 315 313 310
5 7 0 5 7 357 353 351 352 355 354 351 351 351 351 353 353 354 352 350 352 356 357 355 351 343 339 340 341 341 341 339 336 332 329 326 324 321 317 317 317 317 317 318 318 320 321 322 321 320 318 316 314 312
350 349 354 0 353 351 352 354 353 354 357 358 353 352 353 354 355 357 356 351 351 354 356 354 354 348 343 342 341 338 336 336 335 334 333 331 330 329 327 324 323 322 321 321 322 323 323 323 322 321 320 318 316 312
343 343 344 345 347 346 352 353 353 354 354 354 355 351 351 355 356 357 359 354 353 351 352 351 351 349 347 346 343 340 337 333 332 330 329 328 327 325 325 326 327 327 327 327 327 327 326 326 326 324 322 321 319 315
Height
5687 5674 5664 5654 5643 5633 5624 5614 5604 5595 5585 5576 5567 5558 5551 5544 5539 5534 5529 5525 5523 5523 5523 5521 5520 5520 5521 5522 5524 5527 5529 5531 5533 5538 5546 5552 5555 5558 5568 5582 5587 5598 5609 5629 5647 5652 5668 5674 5686 5698 5709 5721 5729 5737
5685 5674 5664 5655 5645 5635 5625 5615 5606 5595 5586 5576 5568 5560 5551 5544 5538 5533 5528 5524 5522 5519 5519 5516 5515 5516 5518 5519 5521 5522 5525 5526 5529 5534 5539 5546 5549 5554 5559 5570 5578 5587 5598 5626 5639 5641 5650 5661 5673 5682 5696 5711 5721 5729
5685 5675 5666 5657 5647 5637 5627 5618 5607 5597 5588 5580 5571 5562 5554 5547 5540 5534 5529 5524 5521 5519 5516 5514 5512 5513 5513 5514 5517 5520 5522 5526 5528 5529 5535 5538 5542 5547 5552 5559 5570 5581 5596 5612 5631 5635 5641 5655 5665 5674 5687 5703 5708 5716
5686 5676 5669 5659 5650 5641 5631 5621 5610 5601 5592 5584 5575 5566 5558 5551 5544 5537 5532 5526 5521 5518 5516 5514 5511 5510 5511 5513 5514 5516 5520 5526 5530 5529 5533 5536 5537 5544 5548 5555 5565 5579 5588 5603 5624 5630 5635 5647 5658 5668 5679 5693 5699 5706
5687 5679 5670 5662 5654 5645 5635 5625 5615 5606 5598 5588 5579 5570 5562 5556 5549 5543 5537 5531 5526 5522 5517 5514 5513 5512 5513 5513 5516 5518 5522 5527 5531 5533 5535 5537 5538 5544 5547 5556 5562 5576 5586 5600 5618 5621 5633 5643 5651 5661 5670 5681 5690 5696
5687 5679 5672 5664 5656 5649 5640 5630 5620 5612 5603 5594 5585 5576 5567 5560 5553 5548 5542 5537 5532 5526 5523 5520 5517 5518 5519 5520 5520 5522 5526 5530 5533 5537 5538 5538 5540 5545 5552 5554 5562 5571 5585 5595 5609 5617 5625 5633 5643 5654 5666 5674 5681 5690
5688 5682 5674 5666 5659 5651 5645 5636 5626 5618 5609 5599 5590 5582 5573 5566 5559 5553 5548 5543 5537 5533 5530 5530 5527 5526 5525 5526 5528 5529 5530 5533 5535 5537 5538 5541 5545 5548 5552 5558 5563 5569 5580 5593 5605 5617 5628 5635 5640 5651 5659 5668 5677 5683
5689 5683 5675 5667 5661 5653 5646 5640 5631 5622 5614 5604 5596 5588 5580 5573 5566 5559 5553 5549 5544 5540 5538 5536 5535 5534 5534 5532 5533 5533 5534 5538 5542 5542 5545 5548 5551 5552 5557 5560 5564 5571 5579 5591 5606 5616 5627 5632 5638 5644 5652 5661 5669 5673
5687 5681 5674 5667 5661 5654 5647 5642 5634 5628 5620 5609 5602 5594 5588 5582 5575 5568 5561 5556 5552 5549 5546 5543 5541 5539 5538 5537 5538 5541 5542 5543 5546 5547 5551 5554 5555 5558 5559 5563 5569 5575 5582 5592 5602 5614 5622 5629 5637 5642 5647 5655 5660 5662
5686 5680 5673 5666 5660 5653 5647 5643 5638 5632 5624 5615 5607 5602 5596 5587 5580 5571 5568 5562 5559 5556 5551 5550 5547 5545 5544 5542 5545 5548 5549 5550 5553 5556 5556 5558 5560 5562 5565 5569 5573 5581 5585 5593 5604 5614 5621 5627 5633 5637 5643 5648 5651 5650
5685 5679 5673 5666 5659 5652 5646 5643 5640 5634 5627 5620 5614 5607 5600 5592 5584 5576 5572 5568 5564 5560 5558 5556 5555 5553 5552 5550 5551 5553 5555 5557 5559 5561 5562 5564 5569 5570 5570 5571 5573 5578 5586 5593 5603 5610 5618 5623 5629 5632 5634 5638 5641 5645
5685 5679 5672 5666 5658 5652 5647 5644 5640 5634 5630 5623 5619 5613 5605 5593 5587 5584 5580 5576 5573 5571 5568 5567 5565 5563 5561 5559 5560 5562 5563 5566 5567 5568 5569 5570 5571 5571 5573 5575 5580 5583 5589 5596 5601 5608 5614 5619 5620 5623 5627 5632 5633 5638
5684 5678 5671 5665 5658 5653 5647 5643 5641 5637 5632 5625 5622 5615 5608 5601 5595 5590 5587 5586 5582 5580 5577 5575 5572 5572 5570 5568 5569 5570 5573 5575 5576 5577 5578 5579 5580 5579 5581 5584 5587 5590 5593 5597 5600 5605 5609 5613 5617 5621 5624 5628 5631 5633
5683 5677 5671 5665 5659 5655 5649 5645 5642 5640 5636 5632 5625 5618 5608 5606 5603 5600 5597 5594 5591 5588 5585 5582 5580 5579 5579 5578 5579 5582 5584 5583 5584 5585 5586 5588 5589 5590 5589 5591 5592 5594 5597 5599 5603 5606 5609 5614 5618 5621 5621 5625 5626 5630
5682 5677 5672 5667 5661 5656 5652 5648 5643 5640 5638 5636 5628 5623 5620 5617 5615 5611 5607 5603 5599 5595 5593 5591 5588 5588 5590 5590 5590 5591 5591 5592 5594 5596 5598 5597 5597 5597 5597 5599 5599 5600 5602 5605 5608 5611 5614 5616 5617 5620 5622 5624 5625 5627
5683 5678 5674 5670 5666 5661 5655 5649 5645 5644 5641 5638 5632 5632 5631 5628 5624 5622 5618 5614 5610 5605 5604 5604 5601 5601 5601 5600 5601 5601 5602 5602 5604 5605 5605 5604 5604 5604 5604 5605 5607 5606 5607 5609 5610 5611 5613 5615 5617 5618 5620 5621 5623 5624
5686 5681 5677 5673 5669 5664 5658 5654 5652 5650 5644 5640 5637 5637 5636 5634 5631 5629 5626 5621 5621 5622 5619 5618 5613 5611 5612 5611 5611 5611 5611 5612 5614 5613 5612 5612 5611 5610 5611 5611 5611 5611 5614 5614 5615 5615 5616 5617 5617 5619 5621 5621 5621 5622
5689 5685 5681 5677 5673 5669 5663 5662 5658 5654 5649 5646 5645 5643 5642 5641 5638 5636 5633 5632 5633 5630 5628 5626 5623 5621 5616 5617 5619 5620 5620 5620 5619 5618 5617 5615 5614 5615 5615 5614 5616 5615 5616 5616 5617 5616 5616 5617 5617 5618 5619 5620 5620 5620
5695 5690 5687 5683 5679 5674 5672 5668 5664 5658 5655 5653 5651 5651 5650 5648 5646 5643 5642 5640 5638 5636 5636 5634 5631 5628 5626 5626 5625 5626 5625 5625 5624 5623 5622 5620 5619 5620 5620 5618 5619 5619 5618 5616 5615 5616 5616 5617 5617 5616 5616 5615 5615 5617
5699 5695 5692 5689 5685 5681 5679 5674 5671 5667 5664 5661 5658 5657 5656 5653 5650 5649 5647 5645 5644 5642 5640 5637 5635 5633 5632 5631 5630 5629 5628 5627 5626 5624 5623 5622 5621 5621 5619 5619 5618 5619 5618 5616 5615 5613 5612 5613 5614 5612 5612 5613 5611 5609
5701 5699 5696 5692 5689 5687 5684 5680 5676 5673 5670 5668 5665 5662 5660 5657 5656 5654 5652 5647 5647 5645 5642 5638 5635 5634 5632 5631 5630 5629 5628 5627 5626 5624 5623 5620 5617 5616 5617 5616 5614 5613 5614 5615 5615 5613 5612 5611 5610 5608 5607 5605 5606 5605
5706 5703 5698 5695 5694 5691 5686 5683 5680 5676 5674 5670 5668 5666 5664 5662 5660 5658 5654 5653 5651 5645 5642 5640 5638 5635 5633 5630 5627 5624 5623 5623 5622 5620 5619 5618 5617 5614 5613 5611 5608 5605 5603 5602 5601 5602 5602 5601 5600 5599 5598 5597 5597 5596
5707 5704 5701 5699 5697 5692 5689 5685 5683 5679 5676 5671 5671 5669 5666 5664 5661 5659 5655 5652 5649 5646 5644 5640 5637 5635 5633 5629 5625 5622 5620 5617 5614 5611 5612 5612 5610 5608 5606 5603 5602 5601 5598 5596 5594 5594 5593 5593 5590 5587 5586 5586 5584 5583
5708 5706 5703 5701 5698 5695 5691 5687 5683 5680 5677 5675 5672 5669 5667 5664 5661 5658 5655 5651 5648 5644 5640 5637 5634 5631 5630 5626 5622 5618 5615 5614 5612 5608 5604 5601 5601 5599 5595 5593 5591 5590 5589 5587 5585 5584 5582 5579 5578 5576 5574 5572 5570 5571
5710 5708 5705 5702 5700 5697 5693 5688 5685 5682 5679 5677 5674 5670 5667 5664 5660 5656 5652 5648 5644 5640 5636 5632 5628 5625 5621 5619 5616 5611 5607 5605 5604 5601 5597 5593 5591 5589 5587 5583 5580 5578 5576 5572 5570 5569 5567 5564 5562 5560 5560 5559 5555 5552
5708 5707 5706 5704 5701 5697 5694 5690 5687 5683 5680 5677 5674 5670 5666 5662 5659 5655 5650 5646 5641 5636 5631 5626 5620 5615 5613 5609 5604 5599 5595 5593 5591 5589 5585 5581 5579 5577 5575 5572 5568 5566 5563 5560 5558 5556 5553 5549 5547 5545 5542 5538 5535 5532
5708 5708 5706 5704 5702 5698 5694 5691 5687 5685 5682 5679 5675 5670 5666 5662 5657 5653 5647 5642 5636 5630 5624 5618 5614 5610 5606 5603 5598 5593 5589 5587 5584 5581 5577 5574 5571 5569 5566 5564 5561 5558 5556 5552 5548 5545 5542 5539 5536 5533 5530 5526 5522 5519
5712 5709 5708 5705 5702 5700 5697 5693 5690 5688 5684 5680 5675 5671 5666 5660 5656 5651 5645 5641 5633 5626 5621 5615 5611 5607 5603 5598 5592 5587 5584 5580 5577 5574 5571 5568 5566 5563 5559 5557 5553 5550 5548 5544 5541 5537 5534 5530 5526 5522 5518 5514 5510 5507
5713 5711 5708 5706 5703 5700 5697 5694 5690 5686 5683 5678 5674 5670 5665 5659 5653 5648 5643 5637 5631 5624 5618 5611 5606 5602 5598 5596 5590 5584 5580 5577 5572 5568 5564 5561 5557 5554 5551 5547 5544 5540 5537 5534 5532 5527 5524 5520 5516 5512 5508 5504 5499 5495
5713 5710 5708 5706 5702 5699 5697 5694 5690 5686 5682 5678 5674 5669 5664 5659 5652 5646 5639 5633 5627 5621 5616 5610 5604 5600 5595 5591 5588 5582 5576 5572 5568 5564 5560 5556 5552 5548 5544 5541 5537 5533 5529 5525 5521 5517 5513 5509 5504 5500 5496 5492 5488 5484
5712 5710 5709 5705 5701 5699 5697 5693 5690 5687 5683 5678 5673 5668 5663 5657 5650 5644 5637 5630 5625 5619 5613 5607 5601 5596 5591 5586 5581 5577 5572 5568 5563 5558 5554 5550 5546 5542 5537 5533 5529 5525 5521 5517 5512 5508 5504 5499 5495 5490 5486 5483 5479 5476
5711 5708 5706 5703 5701 5699 5695 5691 5688 5684 5680 5676 5671 5666 5660 5654 5648 5643 5636 5628 5622 5616 5611 5605 5599 5593 5587 5582 5577 5572 5566 5562 5557 5552 5547 5543 5539 5535 5531 5526 5522 5518 5513 5509 5505 5500 5496 5491 5487 5483 5479 5476 5472 5469
5709 5707 5704 5702 5699 5696 5693 5689 5686 5682 5679 5674 5669 5664 5658 5652 5645 5640 5635 5628 5621 5614 5609 5603 5597 5590 5584 5578 5574 5568 5562 5557 5552 5547 5542 5537 5532 5528 5524 5520 5516 5511 5506 5502 5497 5492 5488 5483 5480 5476 5472 5468 5465 5461